LiveATC.Net - Listen to live air traffic control over the Internet!
Airport/ARTCC Code
Frequency Search
(e.g., 124.400, 128.75)
Site-wide search
 


Browse Feeds
Top 50 Feeds
Coverage Map
Bad Weather Areas

LiveATC FAQ
Offer LiveATC feed
Contact LiveATC.net
Press Inquiries

LiveATC on iPhone
LiveATC on Android

Windows Phone
Windows 8/10

LiveATC Mobile
(Mobile browser)

ATC Audio Archives
Interesting Recordings

LiveATC Forums

Home Page
About LiveATC.net
Make a Donation
Terms of Use
Privacy Policy

Canadian Air Freqs

AIRMETs/SIGMETs

FAA Airport Status
Nat'l Airspace Status
Arrival Demand Charts


Server Software By:
Icecast.org
Liquidsoap

Select an area of interest:
U.S. Feeds: Class B Airports | Class C Airports | Class D/Other Airports | ARTCC (Centers)
International Feeds: Canada | Europe | Oceania | Asia | South America | North/Central America | Africa
Misc Feeds: HF Feeds
Search by ICAO/IATA airport code:   (e.g., kbos, kjfk, lax, eham, etc.)


Currently Available Live Feeds: 2562
Status Updated: Wed Aug 05 2020 19:39:04 UTC


NOTICE

Unauthorized use prohibited. See LiveATC.net Terms of Service

Asia Airport Feeds

 

OBBI Gnd/Twr/App (Archives)
Muharraq, Bahrain

Feed Status: UP
Listen in your browser - HTML5 player(in browser, HTML5)
Click here to listen with your own player(launches your MP3 player)

OBBI 051930Z 31008KT CAVOK 35/27 Q0995 NOSIG


Listeners: 2 out of 1294 total

Bahrain Arrival: 127.850
Bahrain Control (Low Central): 124.300
Bahrain Control (Low East): 125.700
Bahrain Control (Low North): 126.700
Bahrain Departure: 119.100
Bahrain Ground: 121.850
Bahrain Tower: 118.500

OKBK Gnd/Twr/App/Radar (Archives)
Kuwait City, Kuwait

Feed Status: UP
Listen in your browser - HTML5 player(in browser, HTML5)
Click here to listen with your own player(launches your MP3 player)

OKBK 051900Z 01009KT CAVOK 41/08 Q0997 NOSIG


Listeners: 1 out of 1294 total

Kuwait Approach: 121.300
Kuwait Approach: 124.800
Kuwait Ground: 121.700
Kuwait Radar (Center): 125.300
Kuwait Tower: 118.300

OPKC Gnd/Twr/Radar (Archives)
Karachi, Pakistan

Feed Status: UP
Listen in your browser - HTML5 player(in browser, HTML5)
Click here to listen with your own player(launches your MP3 player)

OPKC 051900Z 25006KT 5000 FU FEW020 31/26 Q0995 NOSIG


Listeners: 5 out of 1294 total

Karachi Ground: 121.600
Karachi Radar: 125.500
Karachi Tower: 118.300

OPLA ATIS
Lahore, Pakistan

Feed Status: DOWN
Offline since: 2020-06-16 09:04:39 UTC

OPLA 051855Z 06004KT 4000 FU FEW100 29/26 Q0998 NOSIG RMK QFE971 RMK A29.49

Lahore ATIS: 126.300

OPLA/OPLH Gnd/Twr/App
Lahore, Pakistan

Feed Status: DOWN
Offline since: 2020-06-16 09:04:39 UTC

OPLA 051855Z 06004KT 4000 FU FEW100 29/26 Q0998 NOSIG RMK QFE971 RMK A29.49

Lahore Approach: 121.300
Lahore Approach: 125.300
Lahore Control: 127.500
Lahore Ground: 118.400
Lahore Tower: 118.100
Lahore Tower: 121.800
Walton (OPLH) Tower: 119.400

RCTP Approach (Archives)
Taipei, Taiwan

Feed Status: UP
Listen in your browser - HTML5 player(in browser, HTML5)
Click here to listen with your own player(launches your MP3 player)

RCTP 051900Z VRB02KT 9999 FEW020 BKN100 28/26 Q1011 NOSIG RMK A2988

RCTP Flight Activity (Flightaware)

Listeners: 0 out of 1294 total

Emergency/Guard: 121.500
Taipei Approach: 125.100
Taipei Approach: 125.600
Taipei Approach: 128.500

RCTP Tower (Archives)
Taipei, Taiwan

Feed Status: UP
Listen in your browser - HTML5 player(in browser, HTML5)
Click here to listen with your own player(launches your MP3 player)

RCTP 051900Z VRB02KT 9999 FEW020 BKN100 28/26 Q1011 NOSIG RMK A2988

RCTP Flight Activity (Flightaware)

Listeners: 0 out of 1294 total

Taipei Tower: 118.700

RJAA Approach (Archives)
Tokyo, Japan

Feed Status: UP
Listen in your browser - HTML5 player(in browser, HTML5)
Click here to listen with your own player(launches your MP3 player)

RJAA 051900Z 16004KT 9999 FEW010 23/23 Q1015 NOSIG

RJAA Flight Activity (Flightaware)

Listeners: 4 out of 1294 total

Tokyo Approach: 124.400
Tokyo Approach: 127.700

RJAA Clearance Delivery (Archives)
Tokyo, Japan

Feed Status: UP
Listen in your browser - HTML5 player(in browser, HTML5)
Click here to listen with your own player(launches your MP3 player)

RJAA 051900Z 16004KT 9999 FEW010 23/23 Q1015 NOSIG

RJAA Flight Activity (Flightaware)

Listeners: 0 out of 1294 total

Narita Clearance Delivery (Asia/Pacific): 121.650
Narita Clearance Delivery (US/Europe): 121.900

RJAA Clearance Delivery #1 (Archives)
Tokyo, Japan

Feed Status: UP
Listen in your browser - HTML5 player(in browser, HTML5)
Click here to listen with your own player(launches your MP3 player)

RJAA 051900Z 16004KT 9999 FEW010 23/23 Q1015 NOSIG

RJAA Flight Activity (Flightaware)

Listeners: 0 out of 1294 total

Narita Clearance Delivery (Asia/Pacific): 121.650

RJAA Clearance Delivery #2 (Archives)
Tokyo, Japan

Feed Status: UP
Listen in your browser - HTML5 player(in browser, HTML5)
Click here to listen with your own player(launches your MP3 player)

RJAA 051900Z 16004KT 9999 FEW010 23/23 Q1015 NOSIG

RJAA Flight Activity (Flightaware)

Listeners: 0 out of 1294 total

Narita Clearance Delivery (US/Europe): 121.900

RJAA Company Channels (Archives)
Tokyo, Japan

Feed Status: UP
Listen in your browser - HTML5 player(in browser, HTML5)
Click here to listen with your own player(launches your MP3 player)

RJAA 051900Z 16004KT 9999 FEW010 23/23 Q1015 NOSIG

RJAA Flight Activity (Flightaware)

Listeners: 0 out of 1294 total

Ops: 130.450
Ops: 130.550
Ops: 130.900
Ops: 131.025
Ops: 131.100
Ops: 131.200
Ops: 131.700
Ops: 131.750

RJAA Departure (Archives)
Tokyo, Japan

Feed Status: UP
Listen in your browser - HTML5 player(in browser, HTML5)
Click here to listen with your own player(launches your MP3 player)

RJAA 051900Z 16004KT 9999 FEW010 23/23 Q1015 NOSIG

RJAA Flight Activity (Flightaware)

Listeners: 2 out of 1294 total

Tokyo Departure: 119.600
Tokyo Departure: 124.200

RJAA Departure #1 (Archives)
Tokyo, Japan

Feed Status: UP
Listen in your browser - HTML5 player(in browser, HTML5)
Click here to listen with your own player(launches your MP3 player)

RJAA 051900Z 16004KT 9999 FEW010 23/23 Q1015 NOSIG

RJAA Flight Activity (Flightaware)

Listeners: 0 out of 1294 total

Tokyo Departure: 124.200

RJAA Departure #2 (Archives)
Tokyo, Japan

Feed Status: UP
Listen in your browser - HTML5 player(in browser, HTML5)
Click here to listen with your own player(launches your MP3 player)

RJAA 051900Z 16004KT 9999 FEW010 23/23 Q1015 NOSIG

RJAA Flight Activity (Flightaware)

Listeners: 0 out of 1294 total

Tokyo Departure: 119.600

RJAA Emergency/Guard (Archives)
Tokyo, Japan

Feed Status: UP
Listen in your browser - HTML5 player(in browser, HTML5)
Click here to listen with your own player(launches your MP3 player)

RJAA 051900Z 16004KT 9999 FEW010 23/23 Q1015 NOSIG

RJAA Flight Activity (Flightaware)

Listeners: 0 out of 1294 total

Emergency/Guard: 121.500

RJAA Ground #1 (Archives)
Tokyo, Japan

Feed Status: UP
Listen in your browser - HTML5 player(in browser, HTML5)
Click here to listen with your own player(launches your MP3 player)

RJAA 051900Z 16004KT 9999 FEW010 23/23 Q1015 NOSIG

RJAA Flight Activity (Flightaware)

Listeners: 0 out of 1294 total

Narita Ground: 121.850

RJAA Ground #2 (Archives)
Tokyo, Japan

Feed Status: UP
Listen in your browser - HTML5 player(in browser, HTML5)
Click here to listen with your own player(launches your MP3 player)

RJAA 051900Z 16004KT 9999 FEW010 23/23 Q1015 NOSIG

RJAA Flight Activity (Flightaware)

Listeners: 0 out of 1294 total

Narita Ground: 121.950

RJAA Radar 119.025 (Archives)
Tokyo, Japan

Feed Status: UP
Listen in your browser - HTML5 player(in browser, HTML5)
Click here to listen with your own player(launches your MP3 player)

RJAA 051900Z 16004KT 9999 FEW010 23/23 Q1015 NOSIG

RJAA Flight Activity (Flightaware)

Listeners: 0 out of 1294 total

Tokyo Radar: 119.025

RJAA Radar 120.2 (Archives)
Tokyo, Japan

Feed Status: UP
Listen in your browser - HTML5 player(in browser, HTML5)
Click here to listen with your own player(launches your MP3 player)

RJAA 051900Z 16004KT 9999 FEW010 23/23 Q1015 NOSIG

RJAA Flight Activity (Flightaware)

Listeners: 0 out of 1294 total

Tokyo Radar: 120.200

RJAA Radar 120.6 (Archives)
Tokyo, Japan

Feed Status: UP
Listen in your browser - HTML5 player(in browser, HTML5)
Click here to listen with your own player(launches your MP3 player)

RJAA 051900Z 16004KT 9999 FEW010 23/23 Q1015 NOSIG

RJAA Flight Activity (Flightaware)

Listeners: 0 out of 1294 total

Tokyo Radar: 120.600

RJAA Radar 132.1 (Archives)
Tokyo, Japan

Feed Status: UP
Listen in your browser - HTML5 player(in browser, HTML5)
Click here to listen with your own player(launches your MP3 player)

RJAA 051900Z 16004KT 9999 FEW010 23/23 Q1015 NOSIG

RJAA Flight Activity (Flightaware)

Listeners: 0 out of 1294 total

Tokyo Radar: 132.100

RJAA Radar 133.35 (Archives)
Tokyo, Japan

Feed Status: UP
Listen in your browser - HTML5 player(in browser, HTML5)
Click here to listen with your own player(launches your MP3 player)

RJAA 051900Z 16004KT 9999 FEW010 23/23 Q1015 NOSIG

RJAA Flight Activity (Flightaware)

Listeners: 0 out of 1294 total

Tokyo Radar: 133.350

RJAA Ramp #1 (Archives)
Tokyo, Japan

Feed Status: UP
Listen in your browser - HTML5 player(in browser, HTML5)
Click here to listen with your own player(launches your MP3 player)

RJAA 051900Z 16004KT 9999 FEW010 23/23 Q1015 NOSIG

RJAA Flight Activity (Flightaware)

Listeners: 0 out of 1294 total

Narita Ramp: 121.600

RJAA Ramp #2 (Archives)
Tokyo, Japan

Feed Status: UP
Listen in your browser - HTML5 player(in browser, HTML5)
Click here to listen with your own player(launches your MP3 player)

RJAA 051900Z 16004KT 9999 FEW010 23/23 Q1015 NOSIG

RJAA Flight Activity (Flightaware)

Listeners: 0 out of 1294 total

Narita Ramp: 121.750

RJAA TCA (Archives)
Tokyo, Japan

Feed Status: UP
Listen in your browser - HTML5 player(in browser, HTML5)
Click here to listen with your own player(launches your MP3 player)

RJAA 051900Z 16004KT 9999 FEW010 23/23 Q1015 NOSIG

RJAA Flight Activity (Flightaware)

Listeners: 0 out of 1294 total

Tokyo TCA (Terminal Control Area): 119.450

RJAA Tokyo Control (Archives)
Tokyo, Japan

Feed Status: UP
Listen in your browser - HTML5 player(in browser, HTML5)
Click here to listen with your own player(launches your MP3 player)

RJAA 051900Z 16004KT 9999 FEW010 23/23 Q1015 NOSIG

RJAA Flight Activity (Flightaware)

Listeners: 0 out of 1294 total

Tokyo Control: 125.900

RJAA Tower #1 (Archives)
Tokyo, Japan

Feed Status: UP
Listen in your browser - HTML5 player(in browser, HTML5)
Click here to listen with your own player(launches your MP3 player)

RJAA 051900Z 16004KT 9999 FEW010 23/23 Q1015 NOSIG

RJAA Flight Activity (Flightaware)

Listeners: 0 out of 1294 total

Narita Tower (Rwy 16R/34L): 118.200

RJAA Tower #2 (Archives)
Tokyo, Japan

Feed Status: UP
Listen in your browser - HTML5 player(in browser, HTML5)
Click here to listen with your own player(launches your MP3 player)

RJAA 051900Z 16004KT 9999 FEW010 23/23 Q1015 NOSIG

RJAA Flight Activity (Flightaware)

Listeners: 0 out of 1294 total

Narita Tower (Rwy 16L/34R): 118.350

RJAA Tower (Both) (Archives)
Tokyo, Japan

Feed Status: UP
Listen in your browser - HTML5 player(in browser, HTML5)
Click here to listen with your own player(launches your MP3 player)

RJAA 051900Z 16004KT 9999 FEW010 23/23 Q1015 NOSIG

RJAA Flight Activity (Flightaware)

Listeners: 1 out of 1294 total

Narita Tower (Rwy 16L/34R): 118.350
Narita Tower (Rwy 16R/34L): 118.200

RJOO Tower (Archives)
Osaka, Japan

Feed Status: UP
Listen in your browser - HTML5 player(in browser, HTML5)
Click here to listen with your own player(launches your MP3 player)

RJOO 051100Z 22005KT 160V250 8000 FEW030 30/22 Q1015

RJOO Flight Activity (Flightaware)

Listeners: 0 out of 1294 total

Osaka Tower: 118.100

RJSF RDO (Archives)
Sukagawa, Japan

Feed Status: UP
Listen in your browser - HTML5 player(in browser, HTML5)
Click here to listen with your own player(launches your MP3 player)

RJSF 051100Z 12005KT 9999 FEW015 SCT045 27/24 Q1018

RJSF Flight Activity (Flightaware)

Listeners: 1 out of 1294 total

Fukushima Radio: 118.050

RJTT App/Dep (Archives)
Tokyo, Japan

Feed Status: UP
Listen in your browser - HTML5 player(in browser, HTML5)
Click here to listen with your own player(launches your MP3 player)

RJTT 051917Z 19010KT 9999 FEW009 SCT012 BKN014 26/25 Q1015 RMK 1CU009 3CU012 7CU014 A2997

RJTT Flight Activity (Flightaware)

Listeners: 10 out of 1294 total

Tokyo Approach: 119.100
Tokyo Approach: 119.400
Tokyo Departure: 120.800
Tokyo Departure: 126.000

RJTT Approach (Archives)
Tokyo, Japan

Feed Status: UP
Listen in your browser - HTML5 player(in browser, HTML5)
Click here to listen with your own player(launches your MP3 player)

RJTT 051917Z 19010KT 9999 FEW009 SCT012 BKN014 26/25 Q1015 RMK 1CU009 3CU012 7CU014 A2997

RJTT Flight Activity (Flightaware)

Listeners: 0 out of 1294 total

Tokyo Approach: 119.100
Tokyo Approach: 119.400

RJTT ATIS (Archives)
Tokyo, Japan

Feed Status: UP
Listen in your browser - HTML5 player(in browser, HTML5)
Click here to listen with your own player(launches your MP3 player)

RJTT 051917Z 19010KT 9999 FEW009 SCT012 BKN014 26/25 Q1015 RMK 1CU009 3CU012 7CU014 A2997

RJTT Flight Activity (Flightaware)

Listeners: 1 out of 1294 total

Tokyo ATIS: 128.800

RJTT Company Channels (Archives)
Tokyo, Japan

Feed Status: UP
Listen in your browser - HTML5 player(in browser, HTML5)
Click here to listen with your own player(launches your MP3 player)

RJTT 051917Z 19010KT 9999 FEW009 SCT012 BKN014 26/25 Q1015 RMK 1CU009 3CU012 7CU014 A2997

RJTT Flight Activity (Flightaware)

Listeners: 4 out of 1294 total

Company TBD: 128.500
Company TBD: 131.850
Company TBD: 129.725
Company TBD: 129.700
Company TBD: 131.900
Company TBD: 129.850
Company TBD: 128.975
Company TBD: 123.675
Company TBD: 132.075

RJTT Del/Ground (Archives)
Tokyo, Japan

Feed Status: UP
Listen in your browser - HTML5 player(in browser, HTML5)
Click here to listen with your own player(launches your MP3 player)

RJTT 051917Z 19010KT 9999 FEW009 SCT012 BKN014 26/25 Q1015 RMK 1CU009 3CU012 7CU014 A2997

RJTT Flight Activity (Flightaware)

Listeners: 0 out of 1294 total

Tokyo Clearance Delivery: 121.825
Tokyo Ground: 121.700
Tokyo Ground: 118.225
Tokyo Ground: 121.625
Tokyo Ground: 121.975

RJTT Del/Twr/TCA/Gnd (Archives)
Tokyo, Japan

Feed Status: UP
Listen in your browser - HTML5 player(in browser, HTML5)
Click here to listen with your own player(launches your MP3 player)

RJTT 051917Z 19010KT 9999 FEW009 SCT012 BKN014 26/25 Q1015 RMK 1CU009 3CU012 7CU014 A2997

RJTT Flight Activity (Flightaware)

Listeners: 6 out of 1294 total

Tokyo Clearance Delivery: 121.825
Tokyo Ground: 121.975
Tokyo Ground: 121.625
Tokyo Ground: 121.700
Tokyo Ground: 118.225
Tokyo TCA: 124.750
Tokyo Tower: 118.100
Tokyo Tower: 118.575
Tokyo Tower: 118.725
Tokyo Tower: 124.350

RJTT Departure (Archives)
Tokyo, Japan

Feed Status: UP
Listen in your browser - HTML5 player(in browser, HTML5)
Click here to listen with your own player(launches your MP3 player)

RJTT 051917Z 19010KT 9999 FEW009 SCT012 BKN014 26/25 Q1015 RMK 1CU009 3CU012 7CU014 A2997

RJTT Flight Activity (Flightaware)

Listeners: 0 out of 1294 total

Tokyo Departure: 120.800
Tokyo Departure: 126.000

RJTT Tokyo Control (Archives)
Tokyo, Japan

Feed Status: UP
Listen in your browser - HTML5 player(in browser, HTML5)
Click here to listen with your own player(launches your MP3 player)

RJTT 051917Z 19010KT 9999 FEW009 SCT012 BKN014 26/25 Q1015 RMK 1CU009 3CU012 7CU014 A2997

RJTT Flight Activity (Flightaware)

Listeners: 12 out of 1294 total

Tokyo Control: 133.700
Tokyo Control: 125.900
Tokyo Control: 120.500

RJTT Twr/TCA (Archives)
Tokyo, Japan

Feed Status: UP
Listen in your browser - HTML5 player(in browser, HTML5)
Click here to listen with your own player(launches your MP3 player)

RJTT 051917Z 19010KT 9999 FEW009 SCT012 BKN014 26/25 Q1015 RMK 1CU009 3CU012 7CU014 A2997

RJTT Flight Activity (Flightaware)

Listeners: 1 out of 1294 total

Tokyo TCA: 124.750
Tokyo Tower: 118.100
Tokyo Tower: 118.575
Tokyo Tower: 118.725
Tokyo Tower: 124.350

RJTY Approach (Archives)
Tokyo, Japan

Feed Status: UP
Listen in your browser - HTML5 player(in browser, HTML5)
Click here to listen with your own player(launches your MP3 player)

RJTY 051911Z AUTO 00000KT 9SM SCT011 25/23 A3004 RMK AO2 SLP168 FZRANO $

RJTY Flight Activity (Flightaware)

Listeners: 0 out of 1294 total

Yokota Approach: 118.300
Yokota APproach: 123.800
Yokota Approach: 120.700

RJTY ATIS (Archives)
Tokyo, Japan

Feed Status: UP
Listen in your browser - HTML5 player(in browser, HTML5)
Click here to listen with your own player(launches your MP3 player)

RJTY 051911Z AUTO 00000KT 9SM SCT011 25/23 A3004 RMK AO2 SLP168 FZRANO $

RJTY Flight Activity (Flightaware)

Listeners: 0 out of 1294 total

Yokota ATIS: 126.400

RJTY Ground (Archives)
Tokyo, Japan

Feed Status: UP
Listen in your browser - HTML5 player(in browser, HTML5)
Click here to listen with your own player(launches your MP3 player)

RJTY 051911Z AUTO 00000KT 9SM SCT011 25/23 A3004 RMK AO2 SLP168 FZRANO $

RJTY Flight Activity (Flightaware)

Listeners: 0 out of 1294 total

Yokota Ground: 133.200

RJTY Ground/Tower (Archives)
Tokyo, Japan

Feed Status: UP
Listen in your browser - HTML5 player(in browser, HTML5)
Click here to listen with your own player(launches your MP3 player)

RJTY 051911Z AUTO 00000KT 9SM SCT011 25/23 A3004 RMK AO2 SLP168 FZRANO $

RJTY Flight Activity (Flightaware)

Listeners: 1 out of 1294 total

Yokota Ground: 133.200
Yokota Tower: 134.300

RJTY Tower (Archives)
Tokyo, Japan

Feed Status: UP
Listen in your browser - HTML5 player(in browser, HTML5)
Click here to listen with your own player(launches your MP3 player)

RJTY 051911Z AUTO 00000KT 9SM SCT011 25/23 A3004 RMK AO2 SLP168 FZRANO $

RJTY Flight Activity (Flightaware)

Listeners: 0 out of 1294 total

Yokota Tower: 134.300

RKSG Gnd/Twr/App (Archives)
Pyeongtaek, Korea, Republic of

Feed Status: UP
Listen in your browser - HTML5 player(in browser, HTML5)
Click here to listen with your own player(launches your MP3 player)

RKSG 051921Z 19007G16KT 1 1/2SM -RA BR OVC026 25/23 A2960 RMK AO2A VIS 1 1/2V2 RAE01RAB11 SLP026 $

RKSG Flight Activity (Flightaware)

Listeners: 0 out of 1294 total

Desiderio Final: 255.800
Desiderio GCA: 226.800
Desiderio GCA: 127.000
Desiderio Ground (Camp Humphreys A-511 AAF): 119.500
Desiderio Ground UHF: 229.700
Desiderio Ops: 294.100
Desiderio Tower (Camp Humphreys A-511 AAF): 122.500
Desiderio Tower UHF: 257.800

RKRR Incheon Control (Archives)
Incheon, Korea, Republic of

Feed Status: UP
Listen in your browser - HTML5 player(in browser, HTML5)
Click here to listen with your own player(launches your MP3 player)

RKSI 051900Z 20020KT 2000 +RA BR BKN008 OVC020 24/22 Q1000 WS R16 R34 BECMG 4000 RA

RKSI Flight Activity (Flightaware)

Listeners: 5 out of 1294 total

Incheon Control North Sector (Primary): 128.700
Incheon Control North Sector (Secondary): 132.800
Incheon Control Northwest Sector (Primary): 126.175
Incheon Control Northwest Sector (Secondary): 123.725

RKSO Gnd/Twr/App (Archives)
Pyeongtaek, Korea, Republic of

Feed Status: UP
Listen in your browser - HTML5 player(in browser, HTML5)
Click here to listen with your own player(launches your MP3 player)

RKSO 051923Z 11012G17KT 1 3/8SM +TSRA BR OVC014 25/25 A2959 RMK AO2A SLP023 $

RKSO Flight Activity (Flightaware)

Listeners: 1 out of 1294 total

25 FS Ops: 229.000
36FS Ops: 371.300
Osan Air Base Approach/Departure: 127.900
Osan Air Base Approach/Departure: 133.650
Osan Air Base Ground: 132.450
Osan Air Base Tower: 122.100
Osan App/Dep UHF: 306.600
Osan App/Dep UHF: 234.300
Osan App/Dep UHF (possibly inactive): 306.300
Osan App/Dep UHF (possibly inactive): 363.100
Osan Ground UHF: 253.700
Osan SAR: 282.800
Osan SAR: 381.000
Osan SOF: 299.800
Osan Tower UHF: 308.800
Stallion Ops: 276.200

ROAH Gnd/Twr/App (Archives)
Okinawa, Japan

Feed Status: UP
Listen in your browser - HTML5 player(in browser, HTML5)
Click here to listen with your own player(launches your MP3 player)

RODN 051856Z AUTO 15003KT 6SM BR CLR 28/25 A2992 RMK AO2 SLP136 T02760254 $

RODN Flight Activity (Flightaware)

Listeners: 1 out of 1294 total


ROAH Naha ACC (Archives)
Okinawa, Japan

Feed Status: UP
Listen in your browser - HTML5 player(in browser, HTML5)
Click here to listen with your own player(launches your MP3 player)

RODN 051856Z AUTO 15003KT 6SM BR CLR 28/25 A2992 RMK AO2 SLP136 T02760254 $

RODN Flight Activity (Flightaware)

Listeners: 0 out of 1294 total


RODN Gnd/Twr/App (Archives)
Okinawa, Japan

Feed Status: UP
Listen in your browser - HTML5 player(in browser, HTML5)
Click here to listen with your own player(launches your MP3 player)

RODN 051856Z AUTO 15003KT 6SM BR CLR 28/25 A2992 RMK AO2 SLP136 T02760254 $

RODN Flight Activity (Flightaware)

Listeners: 1 out of 1294 total


ROTM Gnd/Twr (Archives)
Okinawa, Japan

Feed Status: UP
Listen in your browser - HTML5 player(in browser, HTML5)
Click here to listen with your own player(launches your MP3 player)

RODN 051856Z AUTO 15003KT 6SM BR CLR 28/25 A2992 RMK AO2 SLP136 T02760254 $

RODN Flight Activity (Flightaware)

Listeners: 1 out of 1294 total


RPLL ACC 125.7 (Archives)
Manila, Philippines

Feed Status: UP
Listen in your browser - HTML5 player(in browser, HTML5)
Click here to listen with your own player(launches your MP3 player)

RPLL 051900Z AUTO 08003KT 9999 FEW047/// BKN120/// 28/24 Q1009

RPLL Flight Activity (Flightaware)

Listeners: 1 out of 1294 total

Manila Control: 125.700

RPLL App/Dep 124.4 (Archives)
Manila, Philippines

Feed Status: UP
Listen in your browser - HTML5 player(in browser, HTML5)
Click here to listen with your own player(launches your MP3 player)

RPLL 051900Z AUTO 08003KT 9999 FEW047/// BKN120/// 28/24 Q1009

RPLL Flight Activity (Flightaware)

Listeners: 1 out of 1294 total

Manila Approach/.Departure: 124.400

RPLL App/Dep 124.8 (Archives)
Manila, Philippines

Feed Status: UP
Listen in your browser - HTML5 player(in browser, HTML5)
Click here to listen with your own player(launches your MP3 player)

RPLL 051900Z AUTO 08003KT 9999 FEW047/// BKN120/// 28/24 Q1009

RPLL Flight Activity (Flightaware)

Listeners: 0 out of 1294 total

Manila Approach/.Departure: 124.800

RPLL ATIS (Archives)
Manila, Philippines

Feed Status: UP
Listen in your browser - HTML5 player(in browser, HTML5)
Click here to listen with your own player(launches your MP3 player)

RPLL 051900Z AUTO 08003KT 9999 FEW047/// BKN120/// 28/24 Q1009

RPLL Flight Activity (Flightaware)

Listeners: 0 out of 1294 total

Manila ATIS: 126.400

RPLL Clearance Delivery (Archives)
Manila, Philippines

Feed Status: UP
Listen in your browser - HTML5 player(in browser, HTML5)
Click here to listen with your own player(launches your MP3 player)

RPLL 051900Z AUTO 08003KT 9999 FEW047/// BKN120/// 28/24 Q1009

RPLL Flight Activity (Flightaware)

Listeners: 0 out of 1294 total

Manila Clearance Delivery (Primary): 125.100
Manila Clearance Delivery (Secondary): 125.500

RPLL Ground (Archives)
Manila, Philippines

Feed Status: UP
Listen in your browser - HTML5 player(in browser, HTML5)
Click here to listen with your own player(launches your MP3 player)

RPLL 051900Z AUTO 08003KT 9999 FEW047/// BKN120/// 28/24 Q1009

RPLL Flight Activity (Flightaware)

Listeners: 0 out of 1294 total

Manila Ground: 121.800

RPLL Ramp/Taxi (Archives)
Manila, Philippines

Feed Status: UP
Listen in your browser - HTML5 player(in browser, HTML5)
Click here to listen with your own player(launches your MP3 player)

RPLL 051900Z AUTO 08003KT 9999 FEW047/// BKN120/// 28/24 Q1009

RPLL Flight Activity (Flightaware)

Listeners: 0 out of 1294 total

Manila Ramp/Taxi: 121.350
Manila Ramp/Taxi: 121.700

RPLL Tower (Archives)
Manila, Philippines

Feed Status: UP
Listen in your browser - HTML5 player(in browser, HTML5)
Click here to listen with your own player(launches your MP3 player)

RPLL 051900Z AUTO 08003KT 9999 FEW047/// BKN120/// 28/24 Q1009

RPLL Flight Activity (Flightaware)

Listeners: 0 out of 1294 total

Manila Tower: 118.100

HF CWP/SEA (Archives)
Pyeongtaek, Korea, Republic of

Feed Status: UP
Listen in your browser - HTML5 player(in browser, HTML5)
Click here to listen with your own player(launches your MP3 player)


Listeners: 0 out of 1294 total

CWP 1 (Tokyo): 11.384
CWP 1/2 (Tokyo): 13.300
CWP-1/2 (San Francisco): 17.904
CWP-1/2 (Tokyo/Manila): 8.903
CWP-1/2 (Tokyo/San Francisco): 21.985
SEA-2 (Manila): 8.942

UAAA Approach (Archives)
Almaty, Kazakhstan

Feed Status: UP
Listen in your browser - HTML5 player(in browser, HTML5)
Click here to listen with your own player(launches your MP3 player)

UAAA 051900Z 04003MPS 010V070 9999 BKN100 24/10 Q1009 R05R/CLRD65 NOSIG

UAAA Flight Activity (Flightaware)

Listeners: 0 out of 1294 total

Almaty Approach: 124.800

UAAA Tower (Archives)
Almaty, Kazakhstan

Feed Status: UP
Listen in your browser - HTML5 player(in browser, HTML5)
Click here to listen with your own player(launches your MP3 player)

UAAA 051900Z 04003MPS 010V070 9999 BKN100 24/10 Q1009 R05R/CLRD65 NOSIG

UAAA Flight Activity (Flightaware)

Listeners: 0 out of 1294 total

Almaty Tower: 119.400

UAAA Tower/Approach (Archives)
Almaty, Kazakhstan

Feed Status: UP
Listen in your browser - HTML5 player(in browser, HTML5)
Click here to listen with your own player(launches your MP3 player)

UAAA 051900Z 04003MPS 010V070 9999 BKN100 24/10 Q1009 R05R/CLRD65 NOSIG

UAAA Flight Activity (Flightaware)

Listeners: 0 out of 1294 total

Almaty Approach: 124.800
Almaty Tower: 119.400

UNNT Gnd/Twr/App/Radar/Misc (Archives)
Novosibirsk, Russia

Feed Status: UP
Listen in your browser - HTML5 player(in browser, HTML5)
Click here to listen with your own player(launches your MP3 player)

UNNT 051900Z 30001MPS CAVOK 15/13 Q1014 R07/090070 R34/090070 NOSIG RMK QFE750/1000

UNNT Flight Activity (Flightaware)

Listeners: 18 out of 1294 total

ACC_Novosibirsk-Control [5th military channel]: 128.500
ACC_Novosibirsk-Control [Southeast]: 126.100
ACC_Novosibirsk-Control [West]: 127.000
GPA_Kristallik [Severniy airfield]: 123.425
GPA_Sernisiy [Chkalovskiy airfield]: 124.750
GPA_Tomsk Information 1: 134.500
MIL_3 [3rd military channel]: 130.750
MIL_Larek [Shilovo facility]: 123.750
MIL_Maneken [Chkalovskiy airfield]: 123.550
MIL_Novosibirsk-1 [1st military channel]: 124.000
MIL_Noyabr' 31: 124.900
MIL_Trimaran: 124.500
SP_Air-to-Air: 123.450
SP_Air-to-Air 2: 123.400
SP_Common backup frequency: 129.000
SP_Emergency: 121.500
SP_Emergency 2: 123.100
SP_Flyoff: 124.375
SURF_Boarding: 163.425
SURF_Duty chart: 163.800
SURF_O&D Service: 163.325
SURF_Search & Rescue: 164.000
SURF_Security: 163.750
SURF_Tower surf: 163.650
SURF_Vehicles: 163.850
UNNT_Backup frequency: 127.100
UNNT_Novosibirsk-Approach: 127.500
UNNT_Novosibirsk-Ground: 121.700
UNNT_Novosibirsk-Radar: 122.000
UNNT_Novosibirsk-Tower: 118.500
UNNT_Novosibirsk-Transit: 131.600
UNNT_S7 FOCC: 131.925

UNOO Gnd/Tower/App (Archives)
Omsk, Russia

Feed Status: UP
Listen in your browser - HTML5 player(in browser, HTML5)
Click here to listen with your own player(launches your MP3 player)

UNOO 051900Z 02001MPS CAVOK 18/09 Q1017 R07/CLRD60 NOSIG RMK QFE754

UNOO Flight Activity (Flightaware)

Listeners: 1 out of 1294 total

Aerodrom Kalachevo: 123.300
Aerodrom Marianovka: 123.000
Emergency/Guard: 121.500
Novosibirsk Control (Sector 7): 132.500
Novosibirsk Control (Sector 8): 132.900
Omsk Approach (FL060-FL265): 131.200
Omsk Apron: 118.800
Omsk Start/Radar: 119.000
Omsk Taxiing: 121.700
Omsk Transit: 131.700
UNOS/OMSK-Severny: 124.000

UNTT Gnd/Info/Radar/Control (Archives)
Tomsk, Russia

Feed Status: UP
Listen in your browser - HTML5 player(in browser, HTML5)
Click here to listen with your own player(launches your MP3 player)

UNTT Flight Activity (Flightaware)

Listeners: 0 out of 1294 total

Common Backup Frequency: 129.000
Emergency/Guard: 121.500
Novosibirsk Control (Sector 2): 126.100
Novosibirsk Control (Sector 3): 129.300
Novosibirsk Control (Sector 5): 132.300
Tomsk Ground: 118.800
Tomsk Information 1: 134.500
Tomsk Krug (Radar): 127.300
Tomsk Transit: 131.875
Troynik (Golovino): 122.400

USTR Gnd/Twr/App (Archives)
Tyumen, Russia

Feed Status: UP
Listen in your browser - HTML5 player(in browser, HTML5)
Click here to listen with your own player(launches your MP3 player)

USTR 051900Z 04003MPS CAVOK 21/19 Q1021 R30/CLRD65 R21/CLRD65 NOSIG RMK QFE756/1008

USTR Flight Activity (Flightaware)

Listeners: 0 out of 1294 total

Tyumen Approach: 126.100
Tyumen Control: 132.600
Tyumen Control: 133.600
Tyumen Info (Regional): 133.400
Tyumen Start: 118.200
Tyumen Transit: 131.800

USUU Twr/App/Control
Kurgan, Russia

Feed Status: DOWN
Offline since: 2020-07-09 06:01:39 UTC

Aerodromnaya 50: 164.100
Baggage Handling: 164.025
Kurgan Approach: 120.300
Kurgan Tower: 134.300
Kurgan/USUU Transit: 131.700
Kurtamysh: 122.450
Ural Control Sector 4: 119.700
USUL Tower: 129.600

VCBI Director
Colombo, Sri Lanka

Feed Status: DOWN
Offline since: 2020-08-05 18:47:39 UTC

VCBI 051910Z 20006KT 9999 TS SCT016 FEW018CB 27/27 Q1007 NOSIG RMK N

Colombo Director: 132.400

VGHS Tower
Dhaka, Bangladesh

Feed Status: DOWN
Offline since: 2020-08-05 18:58:40 UTC

VGHS 051930Z 12005KT 3500 HZ SCT012 BKN100 29/25 Q1000 NOSIG

Bangladesh Tower: 118.300

VHHH Approach 119.1 #1 (Archives)
Hong Kong, Hong Kong

Feed Status: UP
Listen in your browser - HTML5 player(in browser, HTML5)
Click here to listen with your own player(launches your MP3 player)

VHHH 051900Z 06008KT 9999 FEW018 27/24 Q1009 NOSIG

VHHH Flight Activity (Flightaware)

Listeners: 2 out of 1294 total

Hong Kong Approach: 119.100

VHHH ATIS
Hong Kong, Hong Kong

Feed Status: DOWN
Offline since: 2020-04-09 19:09:06 UTC

VHHH 051900Z 06008KT 9999 FEW018 27/24 Q1009 NOSIG

Hong Kong Arrival ATIS: 128.200

VHHH Clearance Delivery
Hong Kong, Hong Kong

Feed Status: DOWN
Offline since: 2020-04-09 19:09:06 UTC

VHHH 051900Z 06008KT 9999 FEW018 27/24 Q1009 NOSIG

Hong Kong Clearance Delivery: 129.900

VHHH Departure (Primary) (Archives)
Hong Kong, Hong Kong

Feed Status: UP
Listen in your browser - HTML5 player(in browser, HTML5)
Click here to listen with your own player(launches your MP3 player)

VHHH 051900Z 06008KT 9999 FEW018 27/24 Q1009 NOSIG

VHHH Flight Activity (Flightaware)

Listeners: 0 out of 1294 total

Hong Kong Departure: 123.800

VHHH Director #1 (Archives)
Hong Kong, Hong Kong

Feed Status: UP
Listen in your browser - HTML5 player(in browser, HTML5)
Click here to listen with your own player(launches your MP3 player)

VHHH 051900Z 06008KT 9999 FEW018 27/24 Q1009 NOSIG

VHHH Flight Activity (Flightaware)

Listeners: 0 out of 1294 total

Hong Kong Director: 119.500

VHHH Ground
Hong Kong, Hong Kong

Feed Status: DOWN
Offline since: 2020-04-09 19:08:40 UTC

VHHH 051900Z 06008KT 9999 FEW018 27/24 Q1009 NOSIG

Hong Kong Ground (North): 121.600
Hong Kong Ground (South): 122.550

VHHH Ground (North)
Hong Kong, Hong Kong

Feed Status: DOWN
Offline since: 2020-04-09 19:09:06 UTC

VHHH 051900Z 06008KT 9999 FEW018 27/24 Q1009 NOSIG

Hong Kong Ground (North): 121.600

VHHH Ground (South)
Hong Kong, Hong Kong

Feed Status: DOWN
Offline since: 2020-04-09 19:09:06 UTC

VHHH 051900Z 06008KT 9999 FEW018 27/24 Q1009 NOSIG

Hong Kong Ground (South): 122.550

VMMC Tower (Archives)
Taipa, China

Feed Status: UP
Listen in your browser - HTML5 player(in browser, HTML5)
Click here to listen with your own player(launches your MP3 player)

VMMC 051900Z 10006KT 030V160 9999 FEW015 27/25 Q1009 NOSIG

VMMC Flight Activity (Flightaware)

Listeners: 1 out of 1294 total

Macau Tower: 118.000

VTBS Approach (East) (Archives)
Bangkok, Thailand

Feed Status: UP
Listen in your browser - HTML5 player(in browser, HTML5)
Click here to listen with your own player(launches your MP3 player)

VTBS 051900Z 20004KT 9000 -RA FEW020CB SCT040 BKN080 26/25 Q1008 NOSIG

VTBS Flight Activity (Flightaware)

Listeners: 0 out of 1294 total

Bangkok Approach (East): 122.350

VTBS Approach (North) (Archives)
Bangkok, Thailand

Feed Status: UP
Listen in your browser - HTML5 player(in browser, HTML5)
Click here to listen with your own player(launches your MP3 player)

VTBS 051900Z 20004KT 9000 -RA FEW020CB SCT040 BKN080 26/25 Q1008 NOSIG

VTBS Flight Activity (Flightaware)

Listeners: 0 out of 1294 total

Bangkok Approach (North): 121.700

VTBS Approach 119.1 (Archives)
Bangkok, Thailand

Feed Status: UP
Listen in your browser - HTML5 player(in browser, HTML5)
Click here to listen with your own player(launches your MP3 player)

VTBS 051900Z 20004KT 9000 -RA FEW020CB SCT040 BKN080 26/25 Q1008 NOSIG

VTBS Flight Activity (Flightaware)

Listeners: 0 out of 1294 total

Bangkok Approach: 119.100

VTBS Approach 119.4 (Archives)
Bangkok, Thailand

Feed Status: UP
Listen in your browser - HTML5 player(in browser, HTML5)
Click here to listen with your own player(launches your MP3 player)

VTBS 051900Z 20004KT 9000 -RA FEW020CB SCT040 BKN080 26/25 Q1008 NOSIG

VTBS Flight Activity (Flightaware)

Listeners: 0 out of 1294 total

Bangkok Approach: 119.400

VTBS Approach 120.3 (Archives)
Bangkok, Thailand

Feed Status: UP
Listen in your browser - HTML5 player(in browser, HTML5)
Click here to listen with your own player(launches your MP3 player)

VTBS 051900Z 20004KT 9000 -RA FEW020CB SCT040 BKN080 26/25 Q1008 NOSIG

VTBS Flight Activity (Flightaware)

Listeners: 0 out of 1294 total

Bangkok Approach: 120.300

VTBS Approach/Arrival (Archives)
Bangkok, Thailand

Feed Status: UP
Listen in your browser - HTML5 player(in browser, HTML5)
Click here to listen with your own player(launches your MP3 player)

VTBS 051900Z 20004KT 9000 -RA FEW020CB SCT040 BKN080 26/25 Q1008 NOSIG

VTBS Flight Activity (Flightaware)

Listeners: 1 out of 1294 total

Bangkok Approach: 124.350
Bangkok Approach: 125.200
Bangkok Approach: 124.700
Bangkok Approach: 126.300
Bangkok Approach: 133.400
Bangkok Arrival (VTBD): 125.500

VTBS Arrival 121.1 (Archives)
Bangkok, Thailand

Feed Status: UP
Listen in your browser - HTML5 player(in browser, HTML5)
Click here to listen with your own player(launches your MP3 player)

VTBS 051900Z 20004KT 9000 -RA FEW020CB SCT040 BKN080 26/25 Q1008 NOSIG

VTBS Flight Activity (Flightaware)

Listeners: 0 out of 1294 total

Bangkok Arrival: 121.100

VTBS Departure (Archives)
Bangkok, Thailand

Feed Status: UP
Listen in your browser - HTML5 player(in browser, HTML5)
Click here to listen with your own player(launches your MP3 player)

VTBS 051900Z 20004KT 9000 -RA FEW020CB SCT040 BKN080 26/25 Q1008 NOSIG

VTBS Flight Activity (Flightaware)

Listeners: 0 out of 1294 total

Bangkok Departure: 119.250

VTBS Ground (East) (Archives)
Bangkok, Thailand

Feed Status: UP
Listen in your browser - HTML5 player(in browser, HTML5)
Click here to listen with your own player(launches your MP3 player)

VTBS 051900Z 20004KT 9000 -RA FEW020CB SCT040 BKN080 26/25 Q1008 NOSIG

VTBS Flight Activity (Flightaware)

Listeners: 0 out of 1294 total

Bangkok Ground (East): 121.650

VTBS Ground (Main) (Archives)
Bangkok, Thailand

Feed Status: UP
Listen in your browser - HTML5 player(in browser, HTML5)
Click here to listen with your own player(launches your MP3 player)

VTBS 051900Z 20004KT 9000 -RA FEW020CB SCT040 BKN080 26/25 Q1008 NOSIG

VTBS Flight Activity (Flightaware)

Listeners: 0 out of 1294 total

Bangkok Ground (Main): 121.750

VTBS Ground (West) (Archives)
Bangkok, Thailand

Feed Status: UP
Listen in your browser - HTML5 player(in browser, HTML5)
Click here to listen with your own player(launches your MP3 player)

VTBS 051900Z 20004KT 9000 -RA FEW020CB SCT040 BKN080 26/25 Q1008 NOSIG

VTBS Flight Activity (Flightaware)

Listeners: 0 out of 1294 total

Bangkok Ground (West): 121.950

VTBS Tower (Archives)
Bangkok, Thailand

Feed Status: UP
Listen in your browser - HTML5 player(in browser, HTML5)
Click here to listen with your own player(launches your MP3 player)

VTBS 051900Z 20004KT 9000 -RA FEW020CB SCT040 BKN080 26/25 Q1008 NOSIG

VTBS Flight Activity (Flightaware)

Listeners: 0 out of 1294 total

Bangkok Tower (Rwy 01L/19R): 119.000
Bangkok Tower (Rwy 01R/19L): 118.200

VTBS Tower (Rwy 01L/19R) (Archives)
Bangkok, Thailand

Feed Status: UP
Listen in your browser - HTML5 player(in browser, HTML5)
Click here to listen with your own player(launches your MP3 player)

VTBS 051900Z 20004KT 9000 -RA FEW020CB SCT040 BKN080 26/25 Q1008 NOSIG

VTBS Flight Activity (Flightaware)

Listeners: 0 out of 1294 total

Bangkok Tower (Rwy 01L/19R): 119.000

VTBS Tower (Rwy 01R/19L) (Archives)
Bangkok, Thailand

Feed Status: UP
Listen in your browser - HTML5 player(in browser, HTML5)
Click here to listen with your own player(launches your MP3 player)

VTBS 051900Z 20004KT 9000 -RA FEW020CB SCT040 BKN080 26/25 Q1008 NOSIG

VTBS Flight Activity (Flightaware)

Listeners: 0 out of 1294 total

Bangkok Tower (Rwy 01R/19L): 118.200

VTSS Approach (Archives)
Songkhla, Thailand

Feed Status: UP
Listen in your browser - HTML5 player(in browser, HTML5)
Click here to listen with your own player(launches your MP3 player)

VTSS 051900Z 24003KT 9000 FEW020 SCT100 26/26 Q1008 NOSIG

VTSS Flight Activity (Flightaware)

Listeners: 0 out of 1294 total

Hat Yai Approach: 126.700

WAHH Approach
Yogyakarta, Indonesia

Feed Status: DOWN
Offline since: 2019-01-09 17:03:03 UTC

Adisutjipto Approach: 123.400

WBKK Gnd/Twr/App (Archives)
Kota Kinabalu, Malaysia

Feed Status: UP
Listen in your browser - HTML5 player(in browser, HTML5)
Click here to listen with your own player(launches your MP3 player)

WBKK 051900Z 18006KT 9999 FEW014 26/23 Q1008 NOSIG


Listeners: 1 out of 1294 total

Kinabalu Director: 119.100
Kinabalu Ground: 121.600
Kinabalu Radar: 126.100
Kinabalu Radar: 132.450
Kinabalu Tower: 118.300

WBKK Gnd/Twr/Radar/Control (Archives)
Kota Kinabalu, Malaysia

Feed Status: UP
Listen in your browser - HTML5 player(in browser, HTML5)
Click here to listen with your own player(launches your MP3 player)

WBKK 051900Z 18006KT 9999 FEW014 26/23 Q1008 NOSIG


Listeners: 0 out of 1294 total

Kinabalu Director: 119.100
Kinabalu Ground: 121.600
Kinabalu Radar: 126.100
Kinabalu Radar: 132.450
Kinabalu Radar: 128.300
Kinabalu Tower: 118.300

WBKS Approach (Archives)
Sandakan, Malaysia

Feed Status: UP
Listen in your browser - HTML5 player(in browser, HTML5)
Click here to listen with your own player(launches your MP3 player)

WBKS 051900Z 20003KT 140V260 9999 FEW016 26/25 Q1007


Listeners: 0 out of 1294 total

Sandakan Approach/Departure: 123.200

WBKS ATIS (Archives)
Sandakan, Malaysia

Feed Status: UP
Listen in your browser - HTML5 player(in browser, HTML5)
Click here to listen with your own player(launches your MP3 player)

WBKS 051900Z 20003KT 140V260 9999 FEW016 26/25 Q1007


Listeners: 0 out of 1294 total

Sandakan ATIS: 128.200

WBKS Emergency/Guard (Archives)
Sandakan, Malaysia

Feed Status: UP
Listen in your browser - HTML5 player(in browser, HTML5)
Click here to listen with your own player(launches your MP3 player)

WBKS 051900Z 20003KT 140V260 9999 FEW016 26/25 Q1007


Listeners: 0 out of 1294 total

Emergency/Guard: 121.500

WBKS Gnd/Twr/App/Guard (Archives)
Sandakan, Malaysia

Feed Status: UP
Listen in your browser - HTML5 player(in browser, HTML5)
Click here to listen with your own player(launches your MP3 player)

WBKS 051900Z 20003KT 140V260 9999 FEW016 26/25 Q1007


Listeners: 0 out of 1294 total

Emergency/Guard: 121.500
Sandakan Approach/Departure: 123.200
Sandakan Ground: 121.900
Sandakan Tower: 122.050

WBKS Ground (Archives)
Sandakan, Malaysia

Feed Status: UP
Listen in your browser - HTML5 player(in browser, HTML5)
Click here to listen with your own player(launches your MP3 player)

WBKS 051900Z 20003KT 140V260 9999 FEW016 26/25 Q1007


Listeners: 0 out of 1294 total

Sandakan Ground: 121.900

WBKS Tower (Archives)
Sandakan, Malaysia

Feed Status: UP
Listen in your browser - HTML5 player(in browser, HTML5)
Click here to listen with your own player(launches your MP3 player)

WBKS 051900Z 20003KT 140V260 9999 FEW016 26/25 Q1007


Listeners: 0 out of 1294 total

Sandakan Tower: 122.050

WMKB Radar (Archives)
Penang, Malaysia

Feed Status: UP
Listen in your browser - HTML5 player(in browser, HTML5)
Click here to listen with your own player(launches your MP3 player)

WMKB 051900Z VRB02KT 8000 FEW024 28/26 Q1007 NOSIG


Listeners: 1 out of 1294 total

Butterworth Radar: 125.800

WMKK Control/Info/Radar (Archives)
Sepang, Malaysia

Feed Status: UP
Listen in your browser - HTML5 player(in browser, HTML5)
Click here to listen with your own player(launches your MP3 player)

WMKK 051900Z 13003KT 080V190 9999 FEW030 27/23 Q1008 NOSIG


Listeners: 0 out of 1294 total

Lumpur Departure: 120.350
Lumpur Departure: 124.650
Lumpur Departure: 125.100
Lumpur Departure: 135.250
Lumpur Departure: 135.750
Lumpur Information (North): 134.650
Lumpur Information (South): 126.100
Lumpur Radar: 133.700
Lumpur Radar: 132.600
Lumpur Radar: 133.400
Lumpur Radar: 119.450
Lumpur Radar: 125.850
Lumpur Radar: 118.650
Lumpur Radar: 124.200
Lumpur Radar: 121.250
Lumpur Radar: 128.350
Lumpur Radar (East): 134.250
Lumpur Radar (North): 132.800
Lumpur Radar (South): 123.750

WMSA Del/Gnd/Twr/App (Archives)
Subang, Malaysia

Feed Status: UP
Listen in your browser - HTML5 player(in browser, HTML5)
Click here to listen with your own player(launches your MP3 player)

WMSA 051900Z 00000KT 9999 FEW026 27/24 Q1008


Listeners: 0 out of 1294 total

Lumpur Approach: 119.450
Lumpur Director: 124.200
Subang Clearance Delivery: 126.000
Subang Ground: 121.900
Subang Tower: 118.200

ZBAA Tower (Archives)
Beijing, China

Feed Status: UP
Listen in your browser - HTML5 player(in browser, HTML5)
Click here to listen with your own player(launches your MP3 player)

ZBAA 051900Z 33002MPS 300V360 CAVOK 22/22 Q1007 NOSIG


Listeners: 4 out of 1294 total

Beijing Tower (Rwy 01/19): 118.600

ZHNY Tower
Nanyang, China

Feed Status: DOWN
Offline since: 2020-07-12 07:12:39 UTC

Nanyang Tower: 118.500

ZYCY Tower
Chaoyang, China

Feed Status: DOWN
Offline since: 2020-07-23 03:04:23 UTC

ZYCY 140700Z 25002MPS CAVOK 29/16 Q1006 NOSIG

Chaoyang Tower: 118.350